Terminal Aerodrome Forecast
Issued by NWS

Home | Current Version | Previous Version | Graphics & Text | Print | Product List | Glossary On
Versions: 1 2 3 4 5 6 7 8 9 10 11 12 13 14 15 16 17 18 19 20 21 22 23 24 25 26 27 28 29 30 31 32 33 34 35 36 37 38 39 40 41 42 43 44 45 46 47 48 49 50
000
FTUS43 KLOT 242334
TAFGYY
TAF
KGYY 242334Z 2500/2524 07007KT P6SM VCSH OVC070
      TEMPO 2501/2504 -SHRA SCT045 OVC050
     FM250400 08012KT P6SM VCSH OVC045
     FM251300 09014KT 5SM -RA BR OVC025
     FM251600 08016G22KT 3SM RA BR OVC006
     FM252300 05018G26KT 6SM -RA OVC008=

USA.gov is the U.S. government's official web portal to all federal, state and local government web resources and services.